{"data":{"norad_id":67557,"intl_designator":"2026-015B","name":"MR-1","alt_names":[],"object_type":"PAYLOAD","status":"ACTIVE","operator":null,"country":"SPN","launch_date":"2026-01-22","launch_site_code":"RLLB","launch_vehicle":null,"mission":null,"orbit_class":"UNKNOWN","rcs_meters":null,"size_class":null,"mass_kg":null,"dimensions":null,"purposes":[],"wikipedia_slug":null,"has_3d_model":false,"image_url":null,"decayed_at":null,"tle_current":{"epoch":"2026-05-25T01:15:59.353920Z","epoch_age_seconds":71265,"freshness":"FRESH","line1":"1 67557U 26015B   26145.05277030  .00000052  00000+0  60257-4 0  9996","line2":"2 67557  88.9986 270.8816 0004855 127.1535 233.0061 13.52666578 16582","mean_motion":13.52666578,"eccentricity":0.0004855,"inclination_deg":88.9986,"raan_deg":270.8816,"arg_perigee_deg":127.1535,"mean_anomaly_deg":233.0061,"bstar":6.0257e-5,"rev_number":1658,"period_min":106.45638943258,"perigee_km":1058.8513381866,"apogee_km":1066.0761615147,"semimajor_km":7440.6007498507,"source":"CELESTRAK","updated_at":"2026-05-25T13:38:07.082341Z"}}}